| time (UTC) | temp F | wind direction | speed MPH | gust MPH | rain 1hr in | rain 24hr in | rain mn in | humidity % | barometer mb |
| 20260506084205 | 52 | 322 | 3.0 | 10.0 | 0.00 | 0.37 | 0.05 | 90 | 1008.9 |
| 20260506083207 | 52 | 327 | 4.0 | 9.0 | 0.00 | 0.37 | 0.05 | 91 | 1008.6 |
| 20260506081705 | 51 | 304 | 5.0 | 9.0 | 0.00 | 0.39 | 0.05 | 93 | 1008.5 |
| 20260506081206 | 51 | 350 | 1.0 | 9.0 | 0.00 | 0.39 | 0.05 | 94 | 1008.8 |
| 20260506080706 | 51 | 31 | 4.0 | 6.0 | 0.00 | 0.39 | 0.05 | 94 | 1008.5 |
| 20260506080206 | 51 | 32 | 2.0 | 7.0 | 0.00 | 0.40 | 0.05 | 95 | 1008.4 |
| 20260506073206 | 51 | 311 | 1.0 | 7.0 | 0.00 | 0.46 | 0.05 | 96 | 1008.7 |
| 20260506072705 | 50 | 12 | 2.0 | 7.0 | 0.00 | 0.48 | 0.05 | 96 | 1008.6 |
| 20260506072204 | 50 | 9 | 2.0 | 8.0 | 0.00 | 0.49 | 0.05 | 96 | 1008.8 |
| 20260506071705 | 50 | 314 | 1.0 | 8.0 | 0.00 | 0.52 | 0.05 | 96 | 1008.7 |
| 20260506071205 | 50 | 10 | 4.0 | 6.0 | 0.00 | 0.54 | 0.05 | 96 | 1008.7 |
| 20260506070704 | 50 | 356 | 2.0 | 6.0 | 0.00 | 0.58 | 0.05 | 96 | 1008.5 |
| 20260506070204 | 50 | 14 | 5.0 | 8.0 | 0.00 | 0.61 | 0.05 | 96 | 1008.7 |
| 20260506062205 | 50 | 286 | 3.0 | 7.0 | 0.00 | 0.85 | 0.04 | 96 | 1008.3 |
| 20260506061708 | 50 | 2 | 1.0 | 7.0 | 0.00 | 0.89 | 0.04 | 97 | 1007.8 |
| 20260506060705 | 51 | 40 | 2.0 | 6.0 | 0.00 | 0.93 | 0.04 | 96 | 1008.0 |
| 20260506060209 | 50 | 318 | 2.0 | 6.0 | 0.00 | 0.95 | 0.04 | 96 | 1007.7 |
| 20260506051204 | 51 | 317 | 4.0 | 7.0 | 0.00 | 1.13 | 0.04 | 97 | 1007.1 |
| 20260506050704 | 51 | 6 | 3.0 | 8.0 | 0.00 | 1.15 | 0.04 | 97 | 1007.1 |
| 20260506050205 | 51 | 63 | 3.0 | 8.0 | 0.01 | 1.15 | 0.04 | 97 | 1007.2 |
| 20260506044707 | 51 | 318 | 5.0 | 12.0 | 0.01 | 1.17 | 0.04 | 97 | 1006.9 |
| 20260506044205 | 51 | 294 | 6.0 | 10.0 | 0.01 | 1.17 | 0.04 | 97 | 1006.8 |
| 20260506043705 | 51 | 330 | 2.0 | 11.0 | 0.01 | 1.17 | 0.04 | 97 | 1006.8 |
| 20260506043208 | 51 | 263 | 7.0 | 11.0 | 0.02 | 1.17 | 0.04 | 98 | 1006.8 |
| 20260506042712 | 51 | 288 | 4.0 | 10.0 | 0.02 | 1.17 | 0.04 | 98 | 1006.8 |
| 20260506042205 | 51 | 324 | 3.0 | 10.0 | 0.02 | 1.17 | 0.04 | 98 | 1006.8 |
| 20260506041205 | 51 | 300 | 3.0 | 8.0 | 0.02 | 1.17 | 0.04 | 98 | 1006.6 |
| 20260506040704 | 51 | 306 | 3.0 | 8.0 | 0.02 | 1.17 | 0.04 | 98 | 1006.8 |
| 20260506040205 | 51 | 293 | 2.0 | 7.0 | 0.01 | 1.17 | 0.04 | 98 | 1006.7 |
| 20260506035705 | 51 | 293 | 3.0 | 10.0 | 0.01 | 1.17 | 0.04 | 98 | 1006.9 |
| 20260506034705 | 52 | 318 | 0.0 | 8.0 | 0.01 | 1.17 | 0.03 | 98 | 1006.7 |
| 20260506034205 | 52 | 319 | 2.0 | 6.0 | 0.01 | 1.17 | 0.03 | 98 | 1006.9 |
| 20260506033708 | 52 | 262 | 1.0 | 6.0 | 0.01 | 1.17 | 0.03 | 98 | 1006.6 |
| 20260506032205 | 52 | 279 | 5.0 | 6.0 | 0.00 | 1.17 | 0.02 | 98 | 1006.7 |
| 20260506031705 | 52 | 305 | 2.0 | 3.0 | 0.00 | 1.17 | 0.02 | 98 | 1007.0 |
| 20260506031205 | 52 | 313 | 2.0 | 2.0 | 0.00 | 1.17 | 0.02 | 98 | 1006.9 |
| 20260506030205 | 52 | 45 | 1.0 | 4.0 | 0.01 | 1.17 | 0.02 | 98 | 1006.9 |
| 20260506025707 | 52 | 340 | 2.0 | 4.0 | 0.01 | 1.17 | 0.02 | 98 | 1007.0 |
| 20260506025205 | 52 | 21 | 0.0 | 4.0 | 0.01 | 1.17 | 0.02 | 98 | 1006.9 |
| 20260506024708 | 52 | 58 | 2.0 | 4.0 | 0.01 | 1.17 | 0.02 | 98 | 1007.1 |
| 20260506024205 | 52 | 342 | 0.0 | 4.0 | 0.00 | 1.16 | 0.02 | 98 | 1006.9 |
| 20260506023705 | 53 | 5 | 1.0 | 4.0 | 0.00 | 1.16 | 0.02 | 98 | 1006.9 |
| 20260506022204 | 53 | 236 | 0.0 | 4.0 | 0.00 | 1.16 | 0.02 | 98 | 1007.2 |
| 20260506021706 | 52 | 346 | 0.0 | 5.0 | 0.01 | 1.16 | 0.02 | 98 | 1006.8 |
| 20260506021207 | 52 | 276 | 2.0 | 5.0 | 0.01 | 1.16 | 0.02 | 98 | 1006.9 |
| 20260506020705 | 53 | 251 | 2.0 | 4.0 | 0.02 | 1.16 | 0.02 | 98 | 1007.0 |
| 20260506020207 | 53 | 245 | 2.0 | 3.0 | 0.01 | 1.16 | 0.02 | 98 | 1007.0 |
| 20260506015706 | 53 | 251 | 2.0 | 3.0 | 0.02 | 1.16 | 0.02 | 98 | 1007.1 |
| 20260506015206 | 53 | 268 | 0.0 | 2.0 | 0.02 | 1.16 | 0.02 | 98 | 1007.1 |
| 20260506014706 | 53 | 0 | 0.0 | 3.0 | 0.02 | 1.16 | 0.02 | 98 | 1006.9 |
| 20260506014157 | 53 | 261 | 2.0 | 4.0 | 0.02 | 1.16 | 0.02 | 98 | 1007.1 |
| 20260506013656 | 53 | 266 | 0.0 | 4.0 | 0.02 | 1.16 | 0.02 | 98 | 1007.0 |
| 20260506013158 | 53 | 248 | 3.0 | 5.0 | 0.02 | 1.16 | 0.02 | 98 | 1006.6 |
| 20260506012656 | 53 | 243 | 2.0 | 5.0 | 0.02 | 1.16 | 0.02 | 98 | 1007.2 |
| 20260506012158 | 53 | 238 | 3.0 | 4.0 | 0.02 | 1.16 | 0.02 | 98 | 1007.2 |
| 20260506011656 | 53 | 249 | 2.0 | 4.0 | 0.01 | 1.15 | 0.01 | 98 | 1007.1 |
| 20260506011156 | 53 | 240 | 1.0 | 4.0 | 0.01 | 1.15 | 0.01 | 97 | 1007.2 |
| 20260506005655 | 53 | 242 | 3.0 | 5.0 | 0.00 | 1.14 | 0.00 | 98 | 1007.4 |
| 20260506004156 | 53 | 241 | 3.0 | 5.0 | 0.00 | 1.14 | 0.00 | 98 | 1007.2 |
| 20260506003701 | 53 | 247 | 2.0 | 4.0 | 0.00 | 1.14 | 0.00 | 98 | 1007.4 |
| 20260506003201 | 53 | 251 | 3.0 | 5.0 | 0.00 | 1.14 | 0.00 | 98 | 1007.3 |
| 20260506002657 | 53 | 239 | 3.0 | 5.0 | 0.00 | 1.14 | 0.00 | 98 | 1007.4 |
| 20260506001659 | 53 | 274 | 2.0 | 5.0 | 0.00 | 1.14 | 0.00 | 97 | 1007.5 |
| 20260506001156 | 53 | 239 | 3.0 | 6.0 | 0.00 | 1.14 | 0.00 | 97 | 1007.6 |
| 20260506000656 | 53 | 258 | 2.0 | 6.0 | 0.00 | 1.14 | 0.00 | 97 | 1007.5 |
| 20260506000156 | 53 | 231 | 3.0 | 5.0 | 0.00 | 1.14 | 0.00 | 97 | 1007.5 |
| 20260505235156 | 53 | 244 | 3.0 | 6.0 | 0.00 | 1.14 | 0.00 | 97 | 1007.5 |
| 20260505234655 | 53 | 236 | 3.0 | 4.0 | 0.00 | 1.14 | 0.00 | 97 | 1007.2 |
| 20260505233656 | 53 | 253 | 2.0 | 6.0 | 0.00 | 1.14 | 0.00 | 97 | 1007.3 |
| 20260505233158 | 53 | 250 | 4.0 | 6.0 | 0.00 | 1.14 | 0.00 | 97 | 1007.3 |
| 20260505232655 | 53 | 246 | 2.0 | 4.0 | 0.00 | 1.14 | 0.00 | 97 | 1007.2 |
| 20260505232156 | 53 | 243 | 3.0 | 5.0 | 0.00 | 1.14 | 0.00 | 97 | 1007.3 |
| 20260505231656 | 53 | 246 | 3.0 | 6.0 | 0.00 | 1.14 | 0.00 | 96 | 1007.3 |
| 20260505231156 | 53 | 238 | 4.0 | 7.0 | 0.00 | 1.14 | 0.00 | 96 | 1007.5 |
| 20260505230156 | 53 | 244 | 3.0 | 4.0 | 0.00 | 1.14 | 0.00 | 96 | 1007.8 |
| 20260505225656 | 54 | 251 | 2.0 | 5.0 | 0.00 | 1.14 | 0.00 | 96 | 1007.7 |
| 20260505225156 | 54 | 245 | 1.0 | 5.0 | 0.00 | 1.14 | 0.00 | 96 | 1008.0 |
| 20260505224656 | 54 | 254 | 2.0 | 4.0 | 0.00 | 1.14 | 0.00 | 96 | 1007.7 |
| 20260505224208 | 54 | 245 | 2.0 | 4.0 | 0.00 | 1.14 | 0.00 | 96 | 1007.9 |
| 20260505223159 | 54 | 237 | 0.0 | 4.0 | 0.00 | 1.14 | 0.00 | 96 | 1007.8 |
| 20260505222656 | 54 | 248 | 1.0 | 4.0 | 0.00 | 1.14 | 0.00 | 96 | 1007.8 |
| 20260505222157 | 54 | 236 | 2.0 | 4.0 | 0.00 | 1.14 | 0.00 | 96 | 1007.9 |
| 20260505221656 | 54 | 254 | 2.0 | 3.0 | 0.00 | 1.14 | 0.00 | 96 | 1007.8 |
| 20260505221155 | 54 | 241 | 2.0 | 3.0 | 0.00 | 1.14 | 0.00 | 97 | 1007.9 |
| 20260505220655 | 54 | 250 | 0.0 | 2.0 | 0.00 | 1.14 | 0.00 | 97 | 1008.0 |
| 20260505220156 | 54 | 267 | 0.0 | 2.0 | 0.00 | 1.14 | 0.00 | 97 | 1008.0 |
| 20260505215656 | 54 | 246 | 2.0 | 2.0 | 0.00 | 1.14 | 1.14 | 97 | 1008.1 |
| 20260505215155 | 54 | 258 | 0.0 | 2.0 | 0.00 | 1.14 | 1.14 | 97 | 1007.9 |
| 20260505214657 | 53 | 254 | 0.0 | 2.0 | 0.00 | 1.14 | 1.14 | 97 | 1008.1 |
| 20260505214159 | 53 | 261 | 0.0 | 3.0 | 0.00 | 1.14 | 1.14 | 97 | 1008.0 |
| 20260505213657 | 53 | 256 | 0.0 | 3.0 | 0.00 | 1.14 | 1.14 | 97 | 1007.9 |
| 20260505213158 | 53 | 249 | 1.0 | 3.0 | 0.00 | 1.14 | 1.14 | 97 | 1007.7 |
| 20260505212658 | 53 | 353 | 0.0 | 4.0 | 0.00 | 1.14 | 1.14 | 96 | 1007.7 |
| 20260505211657 | 53 | 246 | 2.0 | 4.0 | 0.00 | 1.14 | 1.14 | 96 | 1007.8 |
| 20260505211157 | 53 | 275 | 2.0 | 5.0 | 0.00 | 1.14 | 1.14 | 96 | 1007.6 |
| 20260505210658 | 53 | 246 | 2.0 | 5.0 | 0.00 | 1.14 | 1.14 | 96 | 1007.7 |
| 20260505210158 | 53 | 233 | 3.0 | 4.0 | 0.00 | 1.14 | 1.14 | 96 | 1007.6 |
| 20260505205658 | 54 | 240 | 2.0 | 6.0 | 0.00 | 1.14 | 1.14 | 96 | 1007.8 |
| 20260505205157 | 54 | 323 | 2.0 | 6.0 | 0.00 | 1.14 | 1.14 | 96 | 1007.7 |
| 20260505204703 | 54 | 317 | 2.0 | 5.0 | 0.00 | 1.14 | 1.14 | 96 | 1008.0 |
| 20260505204157 | 54 | 263 | 2.0 | 5.0 | 0.00 | 1.14 | 1.14 | 96 | 1008.0 |
| 20260505203657 | 54 | 250 | 3.0 | 5.0 | 0.00 | 1.14 | 1.14 | 96 | 1007.9 |
| 20260505202658 | 54 | 245 | 4.0 | 6.0 | 0.00 | 1.14 | 1.14 | 96 | 1008.0 |
| 20260505202156 | 54 | 253 | 1.0 | 6.0 | 0.00 | 1.14 | 1.14 | 96 | 1007.9 |
| 20260505201658 | 54 | 249 | 3.0 | 5.0 | 0.00 | 1.14 | 1.14 | 96 | 1008.2 |
| 20260505200657 | 54 | 260 | 2.0 | 6.0 | 0.00 | 1.14 | 1.14 | 96 | 1008.1 |
| 20260505195657 | 54 | 226 | 5.0 | 6.0 | 0.00 | 1.14 | 1.14 | 96 | 1007.9 |
| 20260505195200 | 54 | 261 | 2.0 | 6.0 | 0.00 | 1.14 | 1.14 | 96 | 1008.0 |
| 20260505194657 | 54 | 245 | 4.0 | 5.0 | 0.00 | 1.14 | 1.14 | 96 | 1007.8 |
| 20260505194157 | 54 | 250 | 2.0 | 5.0 | 0.00 | 1.14 | 1.14 | 95 | 1007.7 |
| 20260505193657 | 54 | 297 | 1.0 | 5.0 | 0.00 | 1.14 | 1.14 | 95 | 1007.6 |
| 20260505193157 | 54 | 303 | 2.0 | 5.0 | 0.00 | 1.14 | 1.14 | 95 | 1007.5 |
| 20260505192710 | 54 | 243 | 5.0 | 5.0 | 0.00 | 1.14 | 1.14 | 95 | 1007.8 |
| 20260505192158 | 54 | 245 | 5.0 | 5.0 | 0.00 | 1.14 | 1.14 | 95 | 1007.7 |
| 20260505191657 | 54 | 226 | 0.0 | 6.0 | 0.00 | 1.14 | 1.14 | 95 | 1007.5 |
| 20260505191158 | 54 | 287 | 1.0 | 6.0 | 0.00 | 1.14 | 1.14 | 95 | 1007.4 |
| 20260505190657 | 54 | 253 | 3.0 | 6.0 | 0.00 | 1.14 | 1.14 | 95 | 1007.4 |
| 20260505185656 | 55 | 271 | 0.0 | 6.0 | 0.00 | 1.14 | 1.14 | 95 | 1007.2 |
| 20260505185156 | 55 | 301 | 2.0 | 6.0 | 0.00 | 1.14 | 1.14 | 94 | 1007.4 |
| 20260505184656 | 55 | 289 | 1.0 | 6.0 | 0.00 | 1.14 | 1.14 | 94 | 1007.3 |
| 20260505184156 | 55 | 308 | 2.0 | 5.0 | 0.00 | 1.14 | 1.14 | 94 | 1007.3 |
| 20260505183656 | 55 | 244 | 4.0 | 6.0 | 0.00 | 1.14 | 1.14 | 94 | 1007.1 |
| 20260505183157 | 55 | 284 | 2.0 | 6.0 | 0.00 | 1.14 | 1.14 | 94 | 1007.0 |
| 20260505182656 | 55 | 274 | 4.0 | 12.0 | 0.00 | 1.14 | 1.14 | 94 | 1007.2 |
| 20260505181643 | 55 | 294 | 7.0 | 12.0 | 0.00 | 1.14 | 1.14 | 93 | 1007.1 |
| 20260505181143 | 55 | 287 | 4.0 | 11.0 | 0.00 | 1.14 | 1.14 | 93 | 1007.1 |
| 20260505180655 | 55 | 259 | 7.0 | 11.0 | 0.00 | 1.14 | 1.14 | 93 | 1007.0 |
| 20260505180144 | 55 | 242 | 3.0 | 10.0 | 0.00 | 1.14 | 1.14 | 94 | 1007.1 |
| 20260505175643 | 55 | 290 | 3.0 | 9.0 | 0.00 | 1.14 | 1.14 | 94 | 1007.2 |
| 20260505175143 | 56 | 237 | 6.0 | 8.0 | 0.00 | 1.15 | 1.14 | 94 | 1007.2 |
| 20260505174643 | 56 | 272 | 4.0 | 10.0 | 0.00 | 1.15 | 1.14 | 93 | 1006.9 |
| 20260505173642 | 56 | 304 | 2.0 | 11.0 | 0.00 | 1.15 | 1.14 | 93 | 1006.9 |
| 20260505173145 | 56 | 267 | 6.0 | 11.0 | 0.01 | 1.15 | 1.14 | 93 | 1006.9 |
| 20260505172643 | 56 | 280 | 4.0 | 10.0 | 0.01 | 1.15 | 1.14 | 94 | 1006.9 |
| 20260505171642 | 56 | 245 | 4.0 | 9.0 | 0.01 | 1.15 | 1.14 | 94 | 1006.7 |
| 20260505171146 | 56 | 286 | 2.0 | 11.0 | 0.01 | 1.15 | 1.14 | 94 | 1006.9 |
| 20260505170642 | 56 | 241 | 3.0 | 11.0 | 0.01 | 1.15 | 1.14 | 94 | 1006.8 |
| 20260505170142 | 57 | 251 | 2.0 | 9.0 | 0.01 | 1.15 | 1.14 | 94 | 1006.8 |
| 20260505165642 | 57 | 216 | 6.0 | 10.0 | 0.01 | 1.15 | 1.14 | 94 | 1006.8 |
| 20260505164641 | 57 | 249 | 4.0 | 12.0 | 0.00 | 1.14 | 1.14 | 95 | 1006.7 |
| 20260505164144 | 56 | 255 | 6.0 | 12.0 | 0.00 | 1.14 | 1.14 | 95 | 1006.7 |
| 20260505163641 | 56 | 242 | 6.0 | 11.0 | 0.00 | 1.14 | 1.14 | 95 | 1006.6 |
| 20260505163142 | 56 | 242 | 6.0 | 12.0 | 0.00 | 1.14 | 1.13 | 95 | 1006.6 |
| 20260505162142 | 56 | 242 | 8.0 | 12.0 | 0.00 | 1.14 | 1.13 | 95 | 1006.6 |
| 20260505161642 | 56 | 244 | 5.0 | 15.0 | 0.00 | 1.14 | 1.13 | 95 | 1006.6 |
| 20260505161142 | 56 | 242 | 7.0 | 15.0 | 0.00 | 1.14 | 1.13 | 95 | 1006.4 |
| 20260505160642 | 56 | 244 | 5.0 | 16.0 | 0.00 | 1.14 | 1.13 | 94 | 1006.5 |
| 20260505153142 | 58 | 247 | 6.0 | 20.0 | 0.00 | 1.14 | 1.13 | 92 | 1006.0 |
| 20260505152642 | 58 | 241 | 6.0 | 20.0 | 0.00 | 1.14 | 1.13 | 92 | 1006.0 |
| 20260505152142 | 58 | 235 | 6.0 | 19.0 | 0.00 | 1.14 | 1.13 | 92 | 1006.0 |
| 20260505151142 | 58 | 251 | 7.0 | 19.0 | 0.01 | 1.14 | 1.13 | 92 | 1006.2 |
| 20260505150641 | 58 | 240 | 3.0 | 19.0 | 0.01 | 1.14 | 1.13 | 92 | 1006.1 |
| 20260505150142 | 58 | 246 | 8.0 | 14.0 | 0.01 | 1.13 | 1.13 | 91 | 1006.1 |
| 20260505140642 | 60 | 248 | 3.0 | 13.0 | 0.02 | 1.13 | 1.13 | 92 | 1006.5 |
| 20260505140145 | 60 | 237 | 2.0 | 13.0 | 0.02 | 1.13 | 1.12 | 91 | 1005.8 |
| 20260505130143 | 57 | 238 | 6.0 | 12.0 | 0.04 | 1.11 | 1.10 | 94 | 1006.6 |
| 20260505124642 | 57 | 269 | 3.0 | 8.0 | 0.05 | 1.09 | 1.09 | 96 | 1006.6 |
| 20260505124142 | 57 | 247 | 2.0 | 9.0 | 0.05 | 1.09 | 1.09 | 96 | 1006.5 |
| 20260505122642 | 57 | 242 | 3.0 | 11.0 | 0.05 | 1.09 | 1.08 | 95 | 1006.5 |
| 20260505122142 | 58 | 235 | 10.0 | 11.0 | 0.04 | 1.07 | 1.07 | 95 | 1006.3 |
| 20260505121645 | 58 | 236 | 3.0 | 5.0 | 0.04 | 1.07 | 1.07 | 95 | 1006.3 |
| 20260505121142 | 58 | 250 | 2.0 | 5.0 | 0.04 | 1.07 | 1.06 | 95 | 1006.3 |
| 20260505120644 | 58 | 205 | 0.0 | 5.0 | 0.04 | 1.06 | 1.06 | 95 | 1006.3 |
| 20260505120142 | 58 | 289 | 0.0 | 7.0 | 0.04 | 1.06 | 1.06 | 95 | 1006.2 |
| 20260505115642 | 58 | 247 | 3.0 | 8.0 | 0.04 | 1.06 | 1.06 | 94 | 1006.4 |
| 20260505114642 | 58 | 230 | 9.0 | 11.0 | 0.05 | 1.05 | 1.05 | 95 | 1006.3 |
| 20260505114142 | 58 | 245 | 4.0 | 5.0 | 0.06 | 1.05 | 1.04 | 95 | 1006.4 |
| 20260505113642 | 59 | 103 | 0.0 | 4.0 | 0.06 | 1.04 | 1.04 | 96 | 1006.3 |
| 20260505113155 | 59 | 107 | 1.0 | 2.0 | 0.07 | 1.04 | 1.04 | 96 | 1006.6 |
| 20260505112642 | 59 | 292 | 0.0 | 2.0 | 0.07 | 1.04 | 1.04 | 97 | 1006.5 |
| 20260505112141 | 59 | 95 | 0.0 | 2.0 | 0.08 | 1.04 | 1.03 | 97 | 1006.5 |
| 20260505111145 | 58 | 99 | 0.0 | 2.0 | 0.11 | 1.03 | 1.03 | 97 | 1006.4 |
| 20260505110642 | 58 | 307 | 0.0 | 2.0 | 0.11 | 1.03 | 1.02 | 97 | 1006.6 |
| 20260505102130 | 57 | 117 | 0.0 | 3.0 | 0.11 | 0.95 | 0.95 | 97 | 1006.9 |
| 20260505101630 | 57 | 107 | 1.0 | 3.0 | 0.10 | 0.94 | 0.94 | 97 | 1006.8 |
| 20260505100633 | 56 | 96 | 2.0 | 4.0 | 0.08 | 0.91 | 0.91 | 97 | 1006.8 |
| 20260505100130 | 56 | 58 | 2.0 | 4.0 | 0.07 | 0.91 | 0.90 | 96 | 1007.0 |
| 20260505095630 | 56 | 76 | 2.0 | 6.0 | 0.06 | 0.89 | 0.89 | 97 | 1006.7 |
| 20260505094630 | 57 | 46 | 2.0 | 4.0 | 0.04 | 0.87 | 0.87 | 97 | 1006.5 |
| 20260505094132 | 56 | 29 | 1.0 | 4.0 | 0.04 | 0.87 | 0.86 | 97 | 1006.8 |
| 20260505093630 | 56 | 59 | 3.0 | 4.0 | 0.03 | 0.85 | 0.85 | 97 | 1006.5 |
| 20260505092629 | 56 | 345 | 2.0 | 4.0 | 0.02 | 0.84 | 0.83 | 98 | 1006.8 |
| 20260505092131 | 56 | 37 | 1.0 | 5.0 | 0.02 | 0.84 | 0.83 | 98 | 1006.8 |
| 20260505091629 | 56 | 14 | 3.0 | 5.0 | 0.02 | 0.84 | 0.83 | 98 | 1006.4 |
| 20260505091130 | 56 | 15 | 0.0 | 8.0 | 0.03 | 0.84 | 0.83 | 98 | 1006.5 |
| 20260505090630 | 56 | 15 | 3.0 | 8.0 | 0.03 | 0.84 | 0.83 | 98 | 1006.4 |
| 20260505085130 | 56 | 344 | 1.0 | 4.0 | 0.04 | 0.83 | 0.83 | 98 | 1006.7 |
| 20260505084632 | 56 | 15 | 2.0 | 4.0 | 0.05 | 0.83 | 0.83 | 98 | 1006.4 |